Погода Актау

Поиск расширенной информации на нашем сайте:

Полезная информация:

Новости сайта



02.01.2020
Опубликован Долгосрочный прогноз погоды по городам России и ближнего зарубежья на январь 2020 года.
Карты: Прогноз на январь и февраль 2020 года, Сравнение прогнозируемой аномалии приземной температуры воздуха на январь 2020 года по разным моделям.




Погода Актау - сегодня

Время (UTC), дата Ветер
(°,м/с) 
Видим.   Явления Облачность Т
(°С)
Тd
(°С)
f(%) Тe
(°С)
Pmin
(гПа)
dP
(гПа)
Po
(мм)
O2
(г/м3)
Тmin Tmax R s Состояние
почвы
12 22.10.21 170 (Ю) 10 км    3/3 600 м 
[Cu med, cong]
+17.8 +13.8 77 +24  1023.1  -0.8  769  288           
15 22.10.21 160 (Ю) 10 км    9/9 600 м 
[Sc]
+15.8 +13.3 85 +21  1023  769  290    +18.4       
18 22.10.21 160 (Ю) 10 км    8/8 600 м 
[Cu med, cong]
+15.4 +13.2 87 +20  1023.2  0.2  770  291    +18.4       
21 22.10.21 150 (ЮВ) 20000 м    ясно 
+14.6 +12 84 +18  1022.9  -0.3  769  292           
00 23.10.21 130 (ЮВ) 10 км    ясно 
+11.2 +8.8 85 +10  1022.1  -0.8  769  296           
03 23.10.21 130 (ЮВ) 10 км    ясно 
+10 +6.5 79 +9  1021.9  -0.2  769  298           
06 23.10.21 140 (ЮВ) 10 км    3/0 средняя 
[Ac lent]
+13.5 +3.2 50 +13  1022.6  0.7  769  295  +9.6         
09 23.10.21 150 (ЮВ) 10 км    3/0 средняя 
[Ac lent]
+18.1 +5.1 42 +18  1021.4  -1.3  768  289           
12 23.10.21 180 (Ю) 10 км    3/0 верхняя 
[Cs]
+17.8 +9 56 +18  1020.4  -1  767  289           
15 23.10.21 150 (ЮВ) 10 км    3/0 средняя 
[Ac lent]
+14.7 +7.7 63 +15  1020.3  767  292    +19.1       
18 23.10.21 130 (ЮВ) 10 км    ясно 
+11.6 +8 79 +12  1020.1  -0.2  767  295    +19.1       
21 23.10.21 130 (ЮВ) 10 км    ясно 
+10.3 +1.5 54 +10  1019.1  -1  766  297           
00 24.10.21 130 (ЮВ) 10 км    ясно 
+8.3 -6 36 +8  1018.3  -0.8  766  300           
03 24.10.21 100 (В) 10 км    3/0 верхняя 
[Ci fib]
+7.9 -8.2 31 +8  1018.4  0.1  766  301           
06 24.10.21 110 (В) 10 км    4/0 верхняя 
[Ci fib]
+12.8 -7.4 24 +13  1018.7  0.3  766  296  +7.5         
09 24.10.21 190 (Ю) 10 км    6/0 верхняя 
[Ci sp]
+16.9 +6.8 51 +18  1017.6  -1.2  765  289           
12 24.10.21 270 (З) 10 км    4/0 верхняя 
[Ci fib]
+15.7 +9.2 65 +16  1016.4  -1.2  764  290           
15 24.10.21 320 (СЗ) 10 км    3/0 верхняя 
[Ci sp]
+13.9 +10.6 80 +17  1016  -0.3  764  291    +18.3       
18 24.10.21 310 (СЗ) 10 км    1/0 верхняя 
[Ci fib]
+11.5 +9.3 86 +13  1015.3  -0.7  764  294    +18.3       
21 24.10.21 020 (С) 10 км    ясно 
+8.5 +4.6 76 +10  1014.2  -1.1  763  297           
00 25.10.21 030 (СВ) 10 км    ясно 
+6 -0.9 61 +7  1013.6  -0.6  762  301           
03 25.10.21 320 (СЗ) 10 км    4/0 верхняя 
[Ci sp]
+6.9 -1.3 56 +8  1014.3  0.7  763  300           
06 25.10.21 020 (С) 10 км    6/0 средняя, верхняя 
[Ac lent|Ci fib]
+9.9 -1.7 44 +10  1015.9  1.6  764  297  +5.6         
09 25.10.21 300 (СЗ) 10 км    8/0 верхняя 
[Cc]
+18.1 +2.7 36 +19  1016.1  0.1  764  288           
12 25.10.21 320 (СЗ) 10 км    10/4 600 м средняя 
[St|As trans]
+15.4 +10.7 74 +17  1017.2  1.2  765  290           
Время (UTC), дата Ветер
(°,м/с) 
Видим.   Явления Облачность Т
(°С)
Тd
(°С)
f(%) Тe
(°С)
Pmin
(гПа)
dP
(гПа)
Po
(мм)
O2
(г/м3)
Тmin Tmax R s Состояние
почвы

Для получения пояснительной информации подведите курсор к названию столбца.

ПОГОДА Актау - архив

Всё, что Вы хотите узнать о погоде Актау - удобно и подробно!

Выберите нужную дату (начиная с 1 января 2019* года) и нажмите кнопку "Найти".
Будут отображены архивные сводки погоды по пункту Актау, начиная с указанной даты.


Отображать данные в формате CSV (для использования в таблицах Excel)


Внимание! Наш архив погоды предназначен исключительно для личного некоммерческого использования в познавательных целях. Если Вам необходимы официальные справки о состоянии погоды (для производственных, юридических, коммерческих и т.п. целей), обращайтесь в органы Росгидромета.

*Примечание: данная дата относится к архиву по метеостанциям СССР (Россия, СНГ, Балтия).
Архив по метеостанциям Зарубежной Европы и Азии (кроме Китая) хранится 10 дней, по другим регионам земного шара (Китай, Африка, Америка, Австралия, Океания) - 1 день.

Актау - район местоположения метеостанции


Название, широта, долгота, высота метеостанции:
Актау 43.8°ш. 51.1°д. -15 м над ур. моря [Казахстан]

Дополнительная информация

В oтличие oт бoльшинства пoгoдных сайтoв мы публикуем пoдрoбную метеoинфoрмацию в детальнoм прoфессиoнальнoм фoрмате.

Характеристики температуры и влажнoсти вoздуха измеряются на высoте 2 м в тени вдали oт зданий и деревьев.
Скoрoсть ветра измеряется на высoте 10 м (на урoвне рoста челoвека скoрoсть ветра ниже в 1.5-2 раза). Если метеoстанция нахoдится в гoрoде или в лесу, тo скoрoсть ветра занижена на 2-4 м/с пo сравнению с oткрытым местoм. Скoрoсть ветра над акватoриями крупных рек и oзёр, а также на вершинах хoлмoв на 2-5 м/с выше, чем в oбычных услoвиях.
Атмoсфернoе давление в разных тoчках местнoсти мoжет значительнo oтличаться oт давления на метеoстанции, в зависимoсти oт услoвий рельефа (при пoдъёме на 10 м давление пoнижается примернo на 1 мм рт.ст.).